EB5EEV-10 Weather Reports


time (UTC)temp
F
wind
direction
speed
knots
gust
knots
rain 1hr
in
rain 24hr
in
rain mn
in
humidity
%
barometer
mb
20260502162615 69 332 4.3 6.1 0.00 0.00 0.01 7 1013.9
20260502160843 69 329 7.8 10.4 0.00 0.00 0.01 7 1013.8
20260502151553 70 326 2.6 2.6 0.00 0.00 0.01 7 1014.4
20260502122044 68 357 1.7 3.5 0.00 0.00 0.01 8 1016.3
20260502120159 68 310 2.6 3.5 0.00 0.00 0.01 8 1016.5
20260502114322 68 293 0.9 0.9 0.00 0.00 0.01 8 1016.9
20260502110922 68 0 0.0 0.9 0.00 0.00 0.01 8 1017.0
20260502104640 67 232 0.9 2.6 0.00 0.00 0.01 8 1017.1
20260502102809 66 127 2.6 2.6 0.00 0.00 0.01 8 1017.3
20260502100929 66 0 0.0 0.0 0.00 0.00 0.01 8 1017.5
20260502091342 64 130 0.9 2.6 0.00 0.00 0.00 8 1017.7
20260502070720 65 0 0.0 0.0 0.00 0.00 0.00 8 1017.5
20260502064806 64 0 0.0 0.0 0.00 0.00 0.00 8 1017.4
20260502062950 63 135 0.9 0.9 0.00 0.00 0.00 8 1017.6
20260502061042 63 0 0.0 0.0 0.00 0.00 0.00 8 1017.5
20260502055228 63 0 0.0 0.9 0.00 0.00 0.00 8 1017.4
20260502053524 63 0 0.0 0.0 0.00 0.00 0.00 8 1017.4
20260502051714 63 0 0.0 0.9 0.00 0.00 0.00 8 1017.1
20260502045924 64 0 0.0 0.0 0.00 0.00 0.00 8 1017.2
20260502044141 64 0 0.0 0.0 0.00 0.00 0.00 8 1017.4
20260502042422 64 0 0.0 0.0 0.00 0.00 0.00 8 1017.4
20260502040642 64 0 0.0 0.0 0.00 0.00 0.00 8 1017.4
20260502034846 64 0 0.0 0.0 0.00 0.00 0.00 8 1017.6
20260502033113 63 0 0.0 0.9 0.00 0.00 0.00 8 1017.6
20260502031121 63 0 0.0 0.0 0.00 0.00 0.00 8 1017.5
20260502025431 63 0 0.0 0.0 0.00 0.00 0.00 8 1017.6
20260502023551 63 0 0.0 0.0 0.00 0.00 0.00 8 1017.6
20260502021728 63 0 0.0 0.0 0.00 0.00 0.00 8 1017.6
20260502020122 63 0 0.0 0.9 0.00 0.00 0.00 8 1017.8
20260502014303 63 0 0.0 0.0 0.00 0.00 0.00 8 1017.9
20260502012644 62 0 0.0 0.0 0.00 0.00 0.00 8 1018.0
20260502010943 62 0 0.0 0.9 0.00 0.00 0.00 8 1018.2
20260502005058 63 0 0.0 0.9 0.00 0.00 0.00 8 1018.2
20260502003312 63 0 0.0 0.9 0.00 0.00 0.00 8 1018.2
20260502001609 63 0 0.0 0.9 0.00 0.00 0.00 8 1018.5
20260501235857 64 0 0.0 0.0 0.00 0.00 0.00 8 1018.8
20260501234031 64 0 0.0 0.0 0.00 0.00 0.00 8 1019.0
20260501232332 64 0 0.0 0.0 0.00 0.00 0.00 8 1019.1
20260501230422 64 153 0.9 0.9 0.00 0.00 0.00 8 1019.2
20260501224727 64 0 0.0 0.0 0.00 0.00 0.00 8 1019.0
20260501223003 64 0 0.0 0.0 0.00 0.00 0.00 8 1019.2
20260501221133 65 0 0.0 0.0 0.00 0.00 0.00 8 1019.3
20260501215212 65 0 0.0 0.0 0.00 0.00 0.03 8 1019.4
20260501213454 65 0 0.0 0.9 0.00 0.00 0.03 8 1019.4
20260501211701 65 143 0.9 0.9 0.00 0.00 0.03 8 1019.6
20260501205847 65 127 0.9 1.7 0.00 0.00 0.03 8 1019.6
20260501203952 65 0 0.0 1.7 0.00 0.00 0.03 8 1019.4
20260501202141 65 0 0.0 0.0 0.00 0.00 0.03 8 1019.2
20260501200353 65 0 0.0 0.9 0.00 0.00 0.03 8 1019.1
20260501194454 65 0 0.0 0.9 0.00 0.00 0.03 8 1018.7
20260501192720 65 144 2.6 3.5 0.00 0.00 0.03 8 1018.4
20260501190834 65 220 0.9 0.9 0.00 0.00 0.03 8 1018.2
20260501185044 65 229 0.9 2.6 0.00 0.00 0.03 8 1018.2
20260501183207 65 234 0.9 2.6 0.00 0.00 0.03 8 1018.2
20260501181307 66 0 0.0 2.6 0.00 0.00 0.03 8 1017.9